Location: Artiguedieu
(43.5000°N, 0.5454°E)
Time: 12:09:20
(UTC+00:00)

CZ-4B DEB - Pass Details

Date: 06 December 2020
Orbit: 841 x 861 km, 99.1° (Epoch: 27 January)

Event Time Altitude Azimuth Distance (km) Brightness Sun altitude
Rises 06:28:46 0° 9° (N) 3,410 7.2 -8.5°
Reaches altitude 10° 06:31:11 10° 5° (N) 2,472 6.5 -8.1°
Maximum altitude 06:36:29 53° 290° (WNW) 1,028 4.3 -7.2°
Drops below altitude 10° 06:41:48 10° 215° (SW) 2,466 6.5 -6.4°
Sets 06:44:12 0° 210° (SSW) 3,401 7.3 -6.0°
